Location: Ammerl�gen
(47.2167°N, 9.6000°E)
Time: 11:19:56
(UTC+00:00)

CZ-4 R/B DEB - Pass Details

Date: 23 October 2021
Orbit: 738 x 791 km, 98.5° (Epoch: 26 November)

Event Time Altitude Azimuth Distance (km) Brightness Sun altitude
Exits shadow 17:54:13 28° 78° (ENE) 1,369 ? -16.7°
Maximum altitude 17:54:53 29° 64° (ENE) 1,341 ? -16.8°
Drops below altitude 10° 17:59:06 10° 5° (N) 2,261 ? -17.5°
Sets 18:01:38 0° 355° (N) 3,192 ? -18.0°
